Wind_Speed
43 43 43 43 43 42 43 44 44 43 43 44 45 46 46 46 46 47 48 48 48 47 48 48 47 47 48 48 49 49 50 50 50 51 51 52 52 52
45 45 45 45 44 44 45 45 45 45 44 45 46 47 47 47 48 48 48 49 49 48 48 48 48 48 48 49 50 50 49 50 51 52 53 53 53 54
47 46 46 46 46 46 46 46 46 46 45 46 47 48 48 49 49 49 49 49 49 49 49 49 49 49 49 49 49 50 49 49 51 52 52 54 55 55
48 48 48 48 48 47 48 48 48 48 48 48 49 49 49 50 50 49 49 49 49 49 49 49 50 50 49 50 50 50 51 50 51 52 54 55 56 57
50 50 50 50 50 50 50 50 50 50 50 50 50 50 50 51 50 50 50 50 50 50 50 49 50 50 50 50 51 51 52 52 52 52 54 55 56 57
51 51 51 51 52 52 51 51 51 52 52 51 51 51 51 51 51 50 50 50 50 50 50 50 50 50 51 51 51 52 52 52 52 53 54 54 54 55
52 52 52 52 52 53 53 52 52 53 53 52 52 51 52 51 51 51 51 51 51 51 51 51 51 51 52 52 52 52 53 53 54 54 54 54 54 54
53 53 53 53 53 54 53 53 52 52 52 52 52 52 52 52 52 52 52 52 52 52 52 52 52 52 52 52 53 53 53 54 55 55 55 54 53 53
53 54 54 54 53 53 53 53 52 52 52 52 53 53 53 53 53 54 53 53 53 52 53 53 54 54 53 53 53 54 54 55 55 55 55 54 53 53
52 52 53 53 52 52 53 53 53 53 53 53 53 53 54 54 54 54 53 53 53 53 53 54 55 56 56 55 55 55 56 56 55 54 54 53 53 52
52 53 53 53 53 53 53 53 53 53 52 52 53 53 53 53 53 54 54 54 54 54 54 55 55 56 57 57 57 57 57 56 55 54 53 53 52 51
52 52 52 52 53 53 53 53 52 52 52 52 52 52 52 53 53 54 54 54 55 55 55 56 56 56 56 57 58 57 57 56 55 54 53 52 52 52
52 52 52 52 52 52 52 52 52 52 52 52 52 52 52 53 53 53 54 54 55 55 56 56 56 56 57 57 57 58 57 56 54 53 53 53 53 53
51 51 51 51 52 52 53 52 52 51 51 51 51 51 52 52 52 53 54 54 55 55 55 55 56 56 57 57 57 57 57 55 55 54 53 54 54 54
50 50 50 50 51 51 51 51 51 51 51 51 51 51 51 51 52 52 53 54 55 55 55 55 55 56 56 56 56 55 55 54 54 54 53 53 53 53
48 49 49 48 49 49 49 49 50 50 50 50 50 51 51 51 51 52 53 54 54 54 54 54 55 55 55 55 54 54 53 53 53 52 52 52 53 53
46 46 46 47 47 47 48 48 49 49 49 50 50 50 50 50 51 51 52 52 53 53 53 53 53 53 53 53 52 52 52 51 51 51 51 50 50 51
45 45 45 45 45 46 46 47 48 48 49 49 48 48 49 49 49 50 51 51 51 52 52 52 52 52 51 51 50 50 49 49 50 50 49 48 48 48
44 44 45 45 45 45 45 46 47 47 48 48 48 48 48 48 49 49 50 50 50 51 51 51 50 50 49 48 48 48 48 47 47 48 48 48 47 47
44 45 45 45 45 45 45 46 46 47 47 48 48 48 49 49 49 49 49 50 50 50 49 49 48 48 48 47 47 47 46 46 46 46 46 45 45 45
44 44 45 45 45 46 46 47 47 47 48 48 49 49 49 50 50 50 50 49 49 48 48 47 47 47 47 46 46 45 45 45 45 44 44 43 43 43
43 44 44 44 45 46 47 47 48 48 48 49 49 49 49 50 49 49 49 48 47 47 47 46 46 46 45 44 44 44 44 44 43 43 43 43 42 40
43 43 44 45 46 46 47 47 48 48 48 48 49 49 49 49 49 49 48 47 47 46 46 45 45 45 44 44 43 43 42 42 41 41 41 41 41 40
Wind_Direction
261 262 264 265 267 268 267 267 266 266 267 267 266 266 266 267 268 269 270 270 272 272 273 274 274 275 276 276 275 274 275 273 272 271 270 269 269 268
263 263 265 266 268 269 268 267 266 266 268 268 267 267 267 268 269 270 270 270 271 272 273 273 274 275 276 276 276 275 275 274 273 272 271 269 269 269
263 264 265 266 267 268 269 268 267 267 268 269 268 268 268 268 269 270 271 270 271 272 273 273 274 275 276 276 276 275 276 276 275 274 273 271 270 270
263 264 265 266 267 267 268 268 268 268 269 269 270 269 269 269 269 270 271 270 271 272 272 273 274 275 276 276 276 276 276 276 276 276 275 274 273 271
264 265 266 266 266 267 267 268 268 268 269 270 271 270 270 270 269 270 270 270 270 271 272 273 274 275 276 276 277 277 277 277 277 277 276 276 275 273
264 265 265 266 266 266 267 268 268 268 269 270 271 271 270 270 269 269 269 270 271 271 272 273 274 275 276 276 277 278 278 277 277 277 277 277 276 274
263 264 265 266 266 266 267 267 268 268 268 269 270 270 270 269 269 268 269 270 271 272 273 274 274 275 276 277 277 278 278 278 278 278 278 277 275 275
264 264 265 265 266 266 267 268 269 269 269 269 269 270 270 269 268 268 270 270 271 272 273 274 275 276 277 277 278 278 279 279 279 278 278 277 276 275
264 264 265 266 267 267 267 267 268 268 268 268 269 269 269 269 268 268 269 270 272 273 273 274 275 276 277 278 278 279 279 280 280 279 277 276 276 275
264 264 265 265 265 266 267 268 269 269 268 268 268 268 268 268 269 269 269 270 272 273 274 275 275 276 277 277 279 279 280 281 280 278 276 275 275 274
265 265 265 265 265 266 267 269 269 269 269 268 268 268 268 269 269 269 269 270 272 273 274 275 275 276 277 278 279 279 279 280 279 278 276 275 273 272
266 266 266 267 267 267 267 268 268 268 268 268 268 268 268 269 269 270 270 270 271 273 274 275 276 277 277 278 279 279 280 280 278 277 276 274 272 272
266 266 267 267 267 267 267 267 267 268 268 268 268 268 269 269 269 270 270 271 272 273 274 275 276 276 277 278 279 280 280 279 277 275 275 274 273 272
265 266 266 266 266 266 266 267 267 267 267 267 268 268 269 270 269 270 271 272 272 273 275 275 276 277 277 278 278 279 278 277 276 276 276 275 274 274
266 266 266 266 266 266 266 266 266 267 268 268 268 269 269 270 270 271 271 272 272 273 275 276 277 277 278 278 278 277 277 276 276 276 276 276 275 274
266 265 266 266 266 266 265 265 266 266 267 267 268 269 269 270 271 271 271 272 273 273 275 276 277 277 278 278 278 277 276 276 276 276 276 276 275 274
265 265 265 266 267 267 267 266 266 267 267 268 268 269 270 271 271 271 272 273 273 274 274 275 276 277 277 277 277 277 277 276 275 275 276 276 275 275
265 266 266 267 267 268 267 267 267 267 267 268 269 269 270 270 271 272 272 273 274 275 275 275 276 276 277 277 277 277 277 277 275 275 275 275 275 275
266 266 267 267 268 268 268 268 268 268 268 268 268 269 270 270 271 272 273 274 275 276 276 276 276 276 276 276 277 277 278 277 277 276 275 275 275 275
267 267 268 268 268 268 268 268 269 269 268 269 269 269 270 271 272 273 274 275 275 275 276 276 275 276 276 276 276 277 278 278 277 277 276 275 274 275
268 268 268 268 268 269 269 270 270 270 269 270 270 271 271 271 272 272 273 275 275 275 275 275 276 276 276 276 277 277 278 277 277 277 276 276 275 275
269 269 269 270 270 270 270 270 270 271 271 271 271 271 271 271 271 272 273 273 274 274 275 275 275 275 276 276 277 277 277 277 277 277 276 276 276 276
271 270 270 271 270 270 270 270 271 271 272 272 272 271 271 271 271 271 272 272 273 274 274 274 274 275 275 276 277 277 276 277 277 276 276 277 277 277
Height
5672 5672 5672 5672 5671 5671 5670 5670 5671 5671 5670 5669 5669 5669 5669 5670 5670 5670 5670 5670 5670 5669 5669 5668 5667 5667 5666 5664 5663 5662 5661 5660 5660 5660 5660 5660 5660 5661
5660 5661 5660 5660 5660 5659 5659 5659 5659 5659 5659 5658 5657 5657 5657 5658 5658 5658 5658 5658 5657 5656 5656 5655 5655 5654 5653 5651 5650 5649 5648 5647 5646 5646 5645 5646 5646 5646
5648 5649 5648 5648 5648 5648 5647 5646 5646 5646 5647 5646 5645 5645 5645 5645 5645 5645 5645 5645 5644 5643 5643 5642 5642 5641 5640 5638 5637 5636 5635 5633 5632 5632 5631 5631 5631 5631
5636 5636 5636 5636 5636 5635 5635 5634 5634 5634 5634 5634 5633 5632 5632 5632 5632 5632 5631 5631 5631 5630 5629 5629 5628 5627 5626 5625 5624 5622 5621 5620 5619 5618 5617 5617 5616 5615
5623 5623 5623 5623 5622 5622 5622 5621 5621 5620 5620 5620 5620 5619 5619 5619 5619 5618 5618 5618 5617 5617 5616 5615 5615 5614 5613 5612 5610 5609 5608 5606 5605 5604 5602 5601 5600 5599
5609 5609 5609 5609 5609 5608 5608 5608 5607 5606 5606 5606 5606 5606 5605 5605 5605 5605 5605 5604 5604 5603 5603 5602 5601 5600 5600 5599 5598 5596 5594 5592 5591 5589 5588 5586 5585 5583
5594 5595 5595 5594 5594 5594 5594 5594 5593 5592 5592 5592 5592 5592 5591 5591 5591 5591 5591 5591 5590 5589 5589 5588 5587 5587 5585 5584 5583 5582 5580 5578 5577 5575 5573 5571 5570 5569
5580 5580 5580 5580 5579 5579 5579 5579 5579 5578 5578 5578 5577 5577 5577 5577 5577 5577 5577 5577 5577 5577 5575 5574 5573 5572 5571 5570 5569 5567 5565 5563 5561 5559 5557 5556 5555 5554
5564 5565 5565 5565 5564 5564 5564 5564 5564 5563 5563 5563 5563 5563 5563 5563 5563 5563 5562 5562 5562 5562 5561 5560 5558 5557 5556 5555 5553 5552 5550 5548 5546 5544 5542 5541 5539 5538
5549 5549 5550 5550 5549 5549 5549 5549 5549 5549 5549 5548 5549 5548 5548 5548 5548 5548 5548 5548 5547 5546 5545 5545 5544 5542 5540 5539 5537 5536 5534 5532 5530 5528 5526 5525 5524 5523
5534 5534 5534 5534 5535 5534 5534 5535 5534 5534 5533 5533 5533 5533 5533 5533 5533 5533 5533 5533 5533 5532 5530 5530 5529 5527 5525 5523 5521 5519 5518 5516 5513 5512 5510 5509 5509 5508
5519 5519 5519 5519 5519 5518 5519 5519 5519 5519 5519 5518 5518 5518 5518 5518 5518 5518 5518 5517 5517 5517 5515 5514 5513 5511 5510 5508 5505 5503 5501 5499 5497 5496 5494 5493 5493 5492
5503 5503 5504 5503 5503 5503 5503 5504 5504 5504 5503 5503 5503 5504 5503 5503 5503 5503 5502 5502 5502 5501 5500 5498 5497 5495 5493 5492 5490 5487 5485 5483 5481 5480 5479 5478 5477 5476
5488 5488 5488 5488 5488 5488 5488 5489 5489 5489 5489 5489 5489 5489 5489 5488 5488 5487 5487 5486 5485 5485 5483 5482 5481 5479 5477 5475 5474 5471 5469 5467 5465 5464 5463 5462 5460 5459
5473 5473 5473 5473 5473 5473 5473 5474 5474 5474 5474 5474 5474 5474 5474 5473 5472 5472 5471 5470 5470 5469 5467 5466 5464 5462 5461 5459 5458 5456 5453 5451 5450 5448 5447 5446 5445 5444
5458 5458 5458 5458 5458 5458 5459 5459 5459 5459 5459 5459 5459 5459 5459 5458 5457 5457 5456 5455 5454 5453 5452 5450 5448 5446 5444 5443 5441 5440 5437 5436 5434 5433 5432 5430 5429 5428
5444 5444 5444 5444 5444 5444 5444 5444 5444 5444 5444 5444 5444 5444 5444 5443 5443 5442 5441 5440 5439 5438 5436 5434 5432 5430 5428 5427 5425 5424 5422 5420 5418 5417 5416 5415 5414 5412
5430 5430 5430 5430 5430 5430 5430 5430 5430 5430 5430 5430 5430 5429 5429 5428 5428 5427 5426 5425 5424 5422 5421 5419 5417 5415 5414 5412 5410 5408 5407 5405 5403 5402 5400 5400 5400 5398
5417 5417 5417 5417 5417 5416 5416 5416 5416 5416 5415 5415 5415 5415 5414 5414 5413 5412 5411 5410 5408 5407 5405 5403 5402 5400 5399 5398 5396 5393 5392 5390 5388 5387 5386 5385 5385 5384
5404 5403 5403 5403 5403 5403 5402 5402 5401 5401 5401 5401 5400 5400 5399 5399 5398 5397 5396 5395 5393 5392 5390 5389 5387 5385 5384 5383 5382 5380 5377 5375 5374 5373 5372 5371 5370 5369
5390 5390 5389 5389 5389 5388 5388 5388 5387 5387 5386 5386 5385 5385 5384 5383 5383 5382 5381 5380 5378 5377 5376 5375 5373 5371 5369 5368 5368 5366 5364 5361 5360 5359 5358 5357 5356 5355
5377 5376 5376 5375 5374 5374 5373 5373 5372 5372 5371 5370 5370 5369 5369 5368 5367 5367 5366 5365 5364 5363 5362 5361 5359 5357 5356 5355 5354 5353 5351 5349 5347 5345 5343 5343 5341 5342
5363 5363 5362 5361 5360 5359 5359 5358 5357 5357 5356 5355 5354 5354 5353 5353 5352 5351 5351 5350 5349 5349 5347 5346 5345 5344 5342 5341 5340 5339 5338 5336 5334 5333 5332 5330 5329 5328